Regional Weather Roundup
Issued by NWS

Home | Current Version | Previous Version | Text Only | Print | Product List | Glossary Off
Versions: 1 2 3 4 5 6 7 8 9 10 11 12 13 14 15 16 17 18 19 20 21 22 23 24 25 26 27 28 29 30 31 32 33 34 35 36 37 38 39 40 41 42 43 44 45 46 47 48 49 50

000
ASUS43 KFSD 030110
RWRSD

WEATHER ROUNDUP FOR SOUTH DAKOTA
NATIONAL WEATHER SERVICE SIOUX FALLS SD
800 PM CDT TUE JUN 02 2015

NOTE: "FAIR" INDICATES FEW OR NO CLOUDS BELOW 12,000 FEET WITH NO
SIGNIFICANT WEATHER AND/OR OBSTRUCTIONS TO VISIBILITY.


SDZ001>005-009-010-012>017-030200-
NORTHWEST AND NORTH CENTRAL SOUTH DAKOTA

CITY           SKY/WX    TMP DP  RH WIND       PRES   REMARKS
BUFFALO          N/A     69  55  60 NW16      29.78R
FAITH            N/A     74  56  53 N7        29.80R
MOBRIDGE       MOSUNNY   83  67  58 N6        29.70R
$$

SDZ012>016-024>037-041>051-057-063-072>074-030200-
SOUTHWEST AND SOUTH CENTRAL SOUTH DAKOTA

CITY           SKY/WX    TMP DP  RH WIND       PRES   REMARKS
RAPID CTY ARPT TSTM      64  56  75 E7        29.85F
PIERRE         PTSUNNY   78  63  59 NW8       29.70S
CUSTER         PTSUNNY   65  54  67 E14       29.97R
ELLSWORTH AFB  TSTM      65  61  87 SW12      29.85
PHILIP         CLOUDY    77  57  50 N10       29.75F
PINE RIDGE     LGT RAIN  63  55  75 SE13      29.86F
SPEARFISH      PTSUNNY   72  52  49 NE7       29.89S HAZE
WINNER         FAIR      84  62  47 S16       29.74R
$$

SDZ004>011-016>023-039-040-030200-
NORTHEAST SOUTH DAKOTA

CITY           SKY/WX    TMP DP  RH WIND       PRES   REMARKS
ABERDEEN       MOSUNNY   84  64  50 S14       29.66S
WATERTOWN      PTCLDY    77  60  55 S15       29.75F
BROOKINGS      CLEAR     75  61  60 S22       29.80S
SISSETON         N/A     80  62  54 S16       29.71F
$$

SDZ017-020-022-023-036>040-048>070-030200-
SOUTHEAST SOUTH DAKOTA

CITY           SKY/WX    TMP DP  RH WIND       PRES   REMARKS
SIOUX FALLS    PTCLDY    76  61  59 S16G26    29.81F
HURON          PTSUNNY   81  62  52 S20G25    29.72R
CHAMBERLAIN    PTSUNNY   80  65  59 S13       29.73R
MITCHELL       MOSUNNY   80  62  54 S17G24    29.75S
YANKTON        CLEAR     79  61  53 S20       29.80R
$$

ABBREVIATIONS USED IN REMARKS
   TC - TEMPERATURE IN CELSIUS
  WCI - WIND CHILL INDEX
   HX - HEAT INDEX
  VSB - VISIBILITY




USA.gov is the U.S. government's official web portal to all federal, state and local government web resources and services.